Temperature
15 16 16 16 16 16 15 14 14 14 14 14 13 13 14 14 14 13 13 13 13 13 13 13 13 13 13 13 12 12 12 12 12 12 12 11 11 11 11 10 10 10 10 10
15 16 15 15 15 15 15 15 14 14 13 13 14 14 13 13 13 13 13 13 13 13 13 13 13 13 13 12 12 12 12 12 12 11 11 11 11 10 10 10 10 10 9 9
13 14 15 14 14 15 14 14 14 13 14 13 13 13 13 13 13 13 13 13 13 13 13 13 12 12 12 12 12 12 11 11 11 11 11 11 10 10 10 10 9 9 9 9
12 14 14 14 14 15 14 14 14 13 13 13 13 14 14 14 14 13 13 13 13 12 12 12 12 12 12 12 11 11 11 11 11 10 10 10 10 10 10 9 9 9 8 8
11 12 13 14 14 14 14 13 13 13 13 13 13 13 12 13 14 14 13 13 13 12 12 12 11 11 11 11 11 11 11 10 10 10 10 10 9 9 9 9 8 8 8 8
11 12 12 13 14 15 14 13 13 13 12 12 12 11 11 13 13 13 13 13 12 12 12 11 11 11 11 11 10 10 10 10 10 10 9 9 9 9 9 8 8 8 8 7
11 11 11 13 14 15 13 13 13 13 13 12 12 12 13 13 13 12 12 12 12 11 11 11 10 10 10 10 10 10 10 9 9 9 9 9 9 8 8 8 8 8 8 7
10 11 11 13 13 13 12 14 14 13 13 13 13 13 12 12 12 12 12 11 11 11 11 10 10 10 10 9 9 9 9 9 9 9 9 8 8 8 8 7 7 7 7 7
10 11 12 13 13 14 14 14 13 13 13 13 12 12 12 12 11 11 11 11 10 10 10 10 9 9 9 9 9 9 9 9 9 8 8 8 8 7 7 7 7 7 6 6
9 10 12 13 13 14 14 14 13 13 13 13 12 12 11 11 11 11 10 10 10 10 9 9 9 9 9 9 8 8 8 8 8 8 8 8 7 7 7 7 6 6 6 6
9 10 11 12 13 13 13 13 13 13 12 12 12 11 11 11 10 10 10 9 9 9 9 9 8 8 8 8 8 8 8 8 8 8 7 7 7 7 7 6 6 6 6 6
10 11 11 12 13 13 13 13 12 12 12 11 11 11 11 10 10 10 9 9 9 9 8 8 8 8 8 8 8 8 8 8 7 7 7 7 7 6 6 6 6 6 6 6
13 13 13 13 13 13 12 12 12 12 11 11 11 10 10 10 9 9 9 8 8 8 8 8 8 8 7 7 7 7 7 7 7 7 7 6 6 6 6 6 6 5 5 5
13 13 12 12 12 12 12 12 11 11 11 11 10 10 10 9 9 8 8 8 8 8 8 7 7 7 7 7 7 7 7 7 7 6 6 6 6 6 6 5 5 5 5 5
13 13 12 12 12 12 11 11 11 10 10 10 9 9 9 9 8 8 8 8 7 7 7 7 7 7 7 6 6 6 6 6 6 6 6 6 5 5 5 5 5 5 5 4
12 12 12 12 12 11 11 11 10 10 10 9 9 9 9 9 8 8 7 7 7 7 7 6 6 6 6 6 6 6 6 6 6 5 5 5 5 5 5 5 4 4 4 4
11 11 11 11 11 11 11 10 10 10 9 9 9 9 8 8 8 7 7 7 7 7 6 6 6 6 5 5 5 5 5 5 5 5 5 5 5 5 4 4 4 4 4 4
12 12 12 11 11 11 10 10 10 9 9 9 9 8 8 8 7 7 7 6 6 6 6 6 5 5 5 5 5 5 5 5 5 5 5 4 4 4 4 4 4 4 4 3
11 11 11 11 11 11 10 10 9 9 9 9 8 8 8 7 7 7 6 6 6 6 5 5 5 5 5 5 5 5 4 4 4 4 4 4 4 4 4 4 3 3 3 3
11 11 11 11 10 10 10 9 9 9 9 8 8 8 7 7 7 6 6 6 6 5 5 5 4 4 4 4 4 4 4 4 4 4 4 3 3 3 3 3 3 3 3 3
10 10 10 10 10 9 9 9 9 9 8 8 8 7 7 6 6 6 5 5 5 5 4 4 4 4 4 4 4 4 4 3 3 3 3 3 3 3 3 3 3 3 2 2
10 10 10 9 9 9 9 9 8 8 8 7 7 7 6 6 6 5 5 5 5 5 4 4 4 4 4 3 3 3 3 3 3 3 3 2 2 2 2 2 2 2 2 2
10 9 9 9 9 9 8 8 8 8 7 7 7 6 6 6 6 5 5 5 4 4 4 4 4 3 3 3 3 3 3 3 2 2 2 2 2 2 2 2 2 1 1 1
9 9 9 8 8 8 8 7 7 7 7 7 6 6 6 6 5 5 5 5 4 4 4 4 3 3 3 3 3 2 2 2 2 2 2 2 1 1 1 1 1 1 1 1
8 8 8 8 7 7 7 7 7 6 6 6 6 6 5 5 5 5 4 4 4 4 3 3 3 3 3 2 2 2 2 2 2 2 1 1 1 1 1 1 1 1 1 1
8 8 8 7 7 7 7 7 6 6 6 6 5 5 5 5 4 4 4 4 3 3 3 3 3 2 2 2 2 2 2 1 1 1 1 1 1 1 1 1 1 0 0 0
7 7 7 7 7 6 6 6 6 6 6 5 5 5 5 4 4 4 4 3 3 3 3 3 2 2 2 2 2 1 1 1 1 1 1 1 1 1 1 0 0 0 0 -0
Wind_Speed
6 5 3 4 4 4 5 7 7 7 7 7 6 5 4 4 4 4 3 3 3 3 3 3 3 3 4 3 3 4 4 4 3 3 3 3 2 2 2 2 2 2 2 2
3 3 2 3 5 5 5 4 5 4 6 5 4 3 3 4 5 5 4 4 4 3 3 3 4 3 3 3 3 4 4 4 3 3 3 3 2 2 3 2 2 2 2 2
4 5 3 4 5 5 4 4 6 7 8 4 2 4 6 6 6 6 5 5 4 4 4 3 4 4 4 4 4 4 4 4 3 3 3 2 2 2 2 2 2 2 2 2
2 2 4 7 4 4 4 4 5 5 4 5 5 5 4 4 6 5 5 5 4 3 3 2 2 3 3 3 4 5 4 4 4 4 3 2 2 2 1 2 2 1 1 1
2 3 6 6 4 3 4 5 4 5 4 2 3 3 1 0 3 4 4 4 4 4 3 3 3 3 4 4 3 4 4 4 4 4 4 3 2 2 1 1 1 1 1 1
3 3 6 7 5 2 3 5 5 4 5 5 5 2 4 2 1 2 2 3 3 3 3 3 3 4 5 4 4 4 4 4 4 4 4 4 3 2 1 1 1 2 2 1
4 5 6 6 4 2 3 6 3 4 6 7 6 5 4 2 2 2 2 3 4 4 3 3 3 4 5 4 3 4 3 3 3 4 4 4 3 2 2 2 2 2 2 1
4 4 7 4 2 4 6 3 3 3 4 4 3 3 3 3 3 4 3 3 4 4 2 2 4 5 4 3 2 2 2 3 3 3 3 3 3 2 2 2 2 1 1 0
7 7 5 2 4 4 4 4 3 3 3 5 5 4 4 3 4 4 3 3 3 4 3 2 3 4 4 2 2 2 2 3 3 3 3 3 4 3 2 2 2 2 2 1
3 5 5 4 3 2 3 4 3 4 5 5 4 5 4 4 3 3 2 3 3 4 3 2 1 2 3 2 2 3 3 2 3 3 3 3 3 3 3 3 3 2 2 2
4 5 2 3 3 4 3 3 3 3 3 5 6 5 4 4 3 3 2 2 2 3 3 2 1 1 1 2 3 3 2 2 2 2 3 3 2 3 4 4 4 4 4 3
8 8 6 6 6 5 5 4 4 4 2 3 5 5 4 4 3 3 2 2 2 2 2 1 1 1 1 2 3 3 2 2 2 2 2 3 2 1 1 1 1 2 3 2
8 7 6 5 5 6 6 5 5 5 5 4 3 4 5 4 3 3 2 2 2 3 2 2 1 1 1 2 3 3 3 3 2 2 3 3 3 3 2 1 2 2 2 2
5 4 3 4 5 5 5 5 4 4 5 5 4 4 4 3 3 3 3 3 3 2 2 1 1 1 1 1 2 2 3 2 2 3 3 3 4 4 3 3 2 2 3 4
6 6 7 5 5 5 5 5 5 5 4 4 4 5 5 4 4 3 3 2 2 2 1 1 1 1 1 1 1 1 2 2 2 3 3 3 3 3 3 3 3 3 2 3
5 4 5 6 7 7 6 6 7 6 6 5 5 5 5 5 4 3 2 2 3 2 2 1 1 2 1 1 1 0 1 2 1 2 2 2 2 3 3 4 3 3 3 3
6 6 7 7 8 8 8 8 8 8 6 6 6 5 5 4 3 2 2 2 3 3 2 2 2 2 1 1 1 1 1 2 2 1 2 3 3 3 4 4 4 4 4 4
9 10 9 10 10 9 8 8 8 8 7 7 6 6 6 5 5 4 3 2 2 1 1 2 2 1 1 1 1 1 1 1 1 2 2 2 2 3 3 4 4 4 3 3
8 8 8 9 9 9 8 8 8 7 7 7 7 7 6 6 6 4 3 3 3 3 4 3 2 1 1 2 0 1 1 1 1 1 1 1 1 1 2 3 3 4 3 3
5 6 7 7 7 7 8 7 7 7 7 7 7 6 6 5 5 5 4 4 5 5 4 3 2 2 2 2 1 1 1 1 1 1 1 1 1 2 2 2 3 4 3 3
5 5 6 6 6 6 7 8 8 7 7 7 8 8 7 5 5 5 4 3 4 3 3 3 2 2 2 2 1 1 1 1 1 2 2 2 2 2 2 2 3 3 3 3
5 5 6 6 6 5 5 6 7 8 7 6 6 6 6 5 5 4 4 5 4 4 3 3 3 3 3 2 1 1 2 2 2 2 2 3 3 3 3 3 3 3 4 4
4 5 5 6 6 5 5 6 7 7 7 7 7 7 7 6 5 5 4 4 3 4 3 3 4 4 4 2 2 2 2 2 3 3 3 3 3 3 4 4 4 4 4 4
4 4 4 4 5 5 5 5 5 5 6 6 6 7 6 4 3 4 3 4 5 4 3 4 5 5 3 2 2 2 3 3 3 3 3 3 3 3 4 4 4 4 4 5
4 4 4 5 5 5 5 5 5 4 4 4 4 4 4 4 4 4 3 4 5 4 3 4 5 4 3 3 3 3 3 3 3 3 3 4 4 4 4 4 4 4 4 5
3 4 4 5 5 4 4 4 4 4 4 4 3 3 3 2 3 3 3 4 4 4 3 3 3 3 3 3 3 3 3 4 4 4 4 4 5 5 4 5 5 5 5 5
2 2 2 2 2 3 4 4 5 5 5 5 4 4 4 3 3 3 4 3 3 3 3 3 3 3 3 3 3 3 3 3 3 4 4 4 4 4 5 5 5 5 5 5
Wind_Direction
225 232 217 230 245 232 204 201 208 234 230 243 229 207 197 176 156 144 141 151 167 167 166 157 153 156 151 154 159 152 143 146 160 159 148 139 131 131 124 119 111 118 105 87
292 274 270 273 264 243 231 219 215 224 254 246 215 190 168 168 164 167 178 183 179 173 161 167 168 171 163 159 160 150 145 154 156 139 134 139 145 138 124 112 101 92 98 100
272 297 343 287 254 226 216 221 193 219 237 218 201 178 181 182 180 181 185 187 183 182 182 180 180 170 172 175 157 154 157 155 150 143 139 144 143 124 127 123 110 103 93 95
228 359 249 250 261 205 203 238 216 207 210 197 201 186 176 167 174 183 182 184 190 182 174 166 163 154 152 144 146 151 157 159 158 154 149 138 124 127 132 139 137 129 109 95
160 229 267 286 282 206 198 260 239 205 201 175 132 94 355 236 172 183 187 184 181 172 157 144 145 147 138 133 141 145 161 172 172 165 155 146 149 161 158 133 122 132 141 104
159 199 240 249 270 235 132 268 260 195 184 168 128 140 249 241 187 173 144 142 139 131 120 132 143 144 137 145 154 172 185 191 183 172 166 168 174 172 147 130 134 130 108 110
188 218 257 258 270 110 172 247 246 189 178 173 181 201 202 160 137 133 119 123 123 125 136 153 146 136 143 152 183 203 191 181 178 174 172 170 160 150 146 133 115 109 111 96
176 205 250 266 134 180 217 210 171 168 167 166 170 145 137 137 133 117 101 108 121 121 125 136 139 136 144 174 202 179 160 161 167 172 172 158 145 150 153 148 139 144 133 63
192 216 244 237 212 219 164 161 174 164 159 142 143 146 137 134 132 128 120 121 130 128 124 124 141 145 159 192 165 147 150 167 178 173 172 161 163 165 161 165 169 185 184 215
226 258 259 256 245 209 167 169 175 158 147 144 149 151 145 142 136 127 117 122 119 128 130 133 153 154 170 174 152 144 162 183 181 174 175 170 171 171 172 184 186 193 202 219
231 254 274 272 219 189 161 136 133 134 152 154 147 153 156 154 152 147 133 128 135 147 159 169 154 149 170 164 150 149 161 180 178 183 185 186 191 199 196 204 201 199 208 209
225 220 202 231 229 195 164 169 166 152 153 152 150 157 153 156 159 154 151 146 145 146 152 165 145 139 178 170 158 162 171 191 196 191 191 189 193 235 283 242 240 230 225 222
219 217 204 212 206 191 178 183 179 169 168 164 160 157 156 159 164 156 153 158 174 180 174 170 165 185 200 174 164 172 189 207 209 198 200 199 195 196 215 320 346 316 290 275
205 177 201 208 200 190 178 175 165 161 163 160 160 156 152 148 150 161 179 191 185 174 168 161 163 227 242 184 168 185 197 218 220 209 210 209 210 211 207 208 236 270 284 285
224 205 202 199 185 178 166 155 151 163 166 164 160 159 158 159 173 192 196 173 150 154 178 174 171 271 302 169 162 192 210 227 233 221 212 212 211 207 207 214 225 238 264 285
215 200 184 181 184 181 174 170 172 180 176 175 174 175 175 175 176 175 171 159 159 185 205 191 215 246 225 158 157 239 256 254 245 213 205 208 211 208 209 216 224 228 235 245
193 206 199 193 191 190 189 187 184 182 181 183 187 177 163 154 150 160 180 184 182 194 193 195 228 225 184 159 188 240 255 263 271 236 208 211 212 216 216 218 225 232 238 239
209 209 201 193 192 193 193 187 183 182 188 192 178 163 164 169 180 192 194 173 157 181 228 226 220 194 188 190 200 237 223 231 254 238 232 227 227 226 222 220 225 235 248 247
215 208 202 196 189 184 185 185 184 185 184 174 168 174 181 185 185 186 175 165 179 220 251 243 219 185 227 241 240 166 195 211 254 252 226 245 254 245 235 228 230 235 236 231
201 193 189 190 187 183 185 184 179 178 177 169 167 168 173 181 177 171 170 193 217 224 228 224 200 208 228 232 188 178 218 220 230 237 215 212 228 245 248 247 244 243 241 237
188 182 177 178 182 184 185 179 173 177 177 171 171 178 182 184 180 175 177 216 246 223 206 208 207 222 219 212 192 203 223 228 228 229 222 223 232 243 251 256 258 254 249 249
188 183 182 175 169 176 180 172 169 169 168 172 175 172 170 176 183 189 208 217 220 203 195 207 212 216 219 212 197 213 225 229 236 234 228 228 234 245 253 258 256 260 261 259
191 186 179 175 174 175 166 166 167 166 171 176 177 179 185 191 189 190 223 231 209 205 199 210 215 218 223 203 211 225 233 235 239 241 236 234 238 244 253 260 261 261 263 265
185 181 180 173 156 153 167 179 177 175 175 178 184 185 183 184 205 218 212 200 201 206 211 216 218 223 217 208 214 227 234 239 244 244 239 238 244 247 251 257 263 264 263 264
183 178 167 160 167 183 185 175 166 169 169 178 186 189 191 191 199 207 199 201 202 204 217 222 221 220 215 217 219 228 235 241 247 248 241 245 248 250 251 254 259 263 264 262
181 183 186 190 191 185 175 169 174 181 177 181 197 199 196 194 187 185 190 202 205 208 214 218 217 215 218 222 227 233 236 247 260 260 249 246 249 250 253 255 259 262 264 263
174 177 172 178 189 181 173 172 179 189 189 187 194 204 197 192 188 190 194 200 203 210 215 216 215 218 220 223 231 238 244 247 251 255 250 247 247 249 251 253 256 262 266 267
Height
1511 1508 1507 1508 1507 1507 1510 1514 1519 1515 1513 1507 1505 1505 1504 1504 1505 1506 1507 1507 1507 1507 1508 1510 1511 1512 1513 1515 1516 1518 1518 1519 1520 1521 1521 1521 1522 1521 1521 1521 1520 1519 1519 1519
1510 1505 1505 1507 1505 1504 1505 1506 1508 1509 1508 1502 1502 1501 1502 1503 1503 1504 1505 1506 1506 1507 1507 1508 1509 1510 1511 1512 1514 1515 1516 1517 1517 1518 1519 1519 1519 1519 1519 1519 1518 1518 1517 1517
1517 1509 1506 1511 1504 1502 1503 1502 1503 1506 1503 1500 1500 1499 1499 1500 1501 1502 1503 1504 1504 1504 1505 1506 1507 1508 1509 1510 1511 1513 1514 1514 1515 1516 1516 1517 1517 1517 1516 1516 1516 1516 1516 1515
1519 1515 1520 1508 1497 1496 1498 1498 1497 1496 1496 1496 1496 1497 1497 1498 1499 1500 1501 1502 1502 1503 1503 1504 1505 1506 1507 1508 1509 1510 1511 1512 1513 1513 1514 1514 1514 1514 1514 1514 1514 1514 1514 1513
1521 1520 1514 1503 1496 1495 1497 1498 1494 1494 1494 1495 1495 1496 1497 1497 1498 1498 1499 1500 1500 1501 1502 1502 1503 1504 1505 1506 1507 1507 1508 1509 1510 1510 1511 1511 1512 1512 1512 1512 1512 1512 1512 1511
1518 1518 1517 1503 1493 1491 1495 1499 1492 1491 1492 1493 1494 1499 1497 1496 1496 1497 1497 1498 1499 1499 1500 1500 1501 1502 1502 1503 1504 1504 1505 1506 1507 1508 1509 1509 1509 1510 1510 1510 1510 1510 1509 1509
1515 1516 1509 1495 1490 1491 1502 1499 1490 1489 1489 1491 1491 1492 1493 1494 1495 1495 1496 1496 1497 1497 1498 1498 1499 1500 1500 1501 1502 1502 1503 1504 1505 1506 1506 1507 1507 1508 1508 1508 1508 1507 1507 1507
1513 1515 1508 1490 1490 1493 1492 1488 1488 1488 1488 1489 1489 1490 1491 1491 1492 1493 1494 1494 1495 1495 1496 1497 1497 1498 1498 1499 1500 1500 1501 1502 1502 1503 1504 1504 1505 1505 1505 1505 1505 1505 1505 1504
1502 1500 1490 1487 1487 1487 1486 1486 1487 1487 1487 1488 1489 1489 1489 1490 1491 1492 1492 1493 1493 1494 1495 1495 1496 1496 1497 1497 1498 1498 1499 1500 1500 1501 1501 1502 1502 1502 1502 1502 1502 1502 1502 1502
1495 1491 1487 1486 1486 1486 1485 1485 1486 1486 1487 1487 1488 1488 1489 1489 1490 1490 1491 1491 1492 1492 1493 1493 1494 1495 1495 1496 1497 1497 1497 1497 1497 1498 1498 1499 1499 1499 1499 1499 1499 1499 1499 1499
1492 1488 1486 1485 1484 1484 1484 1485 1485 1486 1486 1486 1487 1487 1488 1488 1489 1489 1490 1490 1491 1491 1491 1492 1492 1493 1494 1494 1495 1495 1495 1495 1495 1495 1496 1496 1496 1496 1497 1497 1497 1497 1497 1497
1486 1482 1483 1482 1482 1483 1483 1483 1484 1484 1484 1485 1485 1486 1486 1487 1488 1488 1489 1489 1489 1490 1490 1490 1491 1491 1492 1492 1493 1493 1493 1493 1493 1493 1493 1493 1493 1494 1494 1494 1495 1495 1495 1494
1475 1476 1477 1477 1479 1479 1480 1481 1481 1482 1482 1483 1484 1485 1485 1486 1486 1487 1487 1487 1488 1488 1488 1489 1489 1489 1490 1490 1490 1490 1490 1490 1490 1490 1490 1490 1490 1490 1490 1491 1491 1491 1491 1491
1472 1473 1474 1474 1475 1476 1477 1478 1479 1480 1481 1482 1483 1483 1484 1484 1485 1485 1485 1486 1486 1486 1486 1487 1487 1487 1488 1488 1488 1488 1488 1487 1487 1487 1487 1487 1487 1487 1487 1487 1487 1487 1487 1487
1468 1469 1470 1471 1472 1474 1475 1476 1477 1478 1478 1480 1481 1482 1482 1482 1483 1483 1484 1484 1484 1484 1484 1485 1485 1485 1486 1485 1485 1485 1485 1485 1484 1484 1484 1484 1484 1484 1484 1484 1484 1483 1483 1483
1465 1466 1466 1468 1469 1470 1472 1473 1474 1475 1476 1477 1478 1479 1480 1481 1481 1481 1482 1482 1482 1482 1482 1482 1482 1483 1483 1483 1483 1482 1482 1482 1482 1481 1481 1481 1480 1480 1480 1480 1480 1479 1479 1479
1460 1461 1462 1464 1465 1466 1468 1469 1470 1472 1473 1474 1475 1476 1477 1478 1478 1478 1479 1479 1480 1480 1480 1480 1480 1480 1480 1480 1480 1480 1479 1479 1479 1478 1477 1477 1477 1477 1477 1477 1476 1476 1476 1476
1455 1456 1457 1459 1460 1462 1463 1465 1467 1468 1470 1471 1473 1474 1474 1475 1475 1475 1476 1477 1477 1477 1477 1477 1477 1477 1477 1477 1477 1476 1476 1475 1475 1475 1474 1474 1474 1473 1473 1473 1473 1472 1472 1472
1450 1451 1453 1454 1456 1458 1459 1461 1463 1465 1466 1468 1469 1470 1471 1472 1472 1473 1474 1474 1474 1473 1474 1474 1474 1474 1474 1473 1473 1473 1472 1472 1472 1471 1471 1470 1470 1470 1469 1469 1469 1468 1468 1468
1446 1448 1449 1450 1452 1454 1455 1457 1459 1461 1462 1464 1465 1466 1467 1468 1469 1470 1471 1471 1471 1471 1471 1471 1471 1471 1470 1470 1470 1469 1469 1469 1468 1468 1467 1467 1466 1466 1465 1465 1465 1464 1464 1463
1443 1444 1445 1446 1448 1450 1452 1453 1455 1456 1458 1460 1461 1462 1463 1464 1466 1467 1467 1467 1468 1468 1468 1468 1467 1467 1467 1467 1467 1466 1465 1465 1465 1464 1464 1463 1463 1462 1461 1461 1460 1460 1459 1459
1440 1441 1442 1443 1445 1446 1448 1449 1451 1453 1455 1456 1457 1459 1460 1461 1462 1463 1463 1464 1464 1464 1464 1464 1464 1464 1464 1463 1463 1462 1462 1461 1461 1460 1460 1459 1459 1458 1457 1456 1456 1455 1455 1454
1438 1438 1439 1440 1442 1443 1444 1446 1448 1449 1451 1452 1453 1455 1456 1457 1458 1459 1459 1460 1460 1461 1461 1460 1460 1460 1460 1459 1459 1458 1458 1457 1457 1456 1456 1455 1454 1454 1453 1452 1451 1451 1450 1449
1435 1436 1437 1438 1439 1440 1441 1443 1444 1446 1447 1449 1450 1451 1452 1453 1454 1455 1455 1456 1456 1456 1456 1456 1456 1456 1456 1455 1455 1454 1454 1453 1453 1452 1452 1451 1450 1450 1449 1448 1447 1446 1445 1445
1433 1434 1434 1435 1436 1437 1438 1440 1441 1443 1444 1445 1446 1447 1448 1449 1450 1450 1451 1452 1452 1452 1452 1452 1452 1452 1451 1451 1450 1450 1449 1449 1448 1448 1447 1446 1446 1445 1444 1443 1442 1442 1441 1440
1430 1431 1432 1433 1434 1434 1435 1436 1437 1439 1440 1441 1442 1443 1444 1445 1446 1446 1447 1447 1448 1448 1448 1448 1448 1447 1447 1446 1446 1445 1445 1444 1444 1443 1442 1442 1441 1440 1439 1438 1438 1437 1436 1435
1428 1429 1429 1430 1431 1432 1433 1433 1434 1435 1436 1437 1438 1439 1440 1441 1441 1442 1442 1443 1443 1443 1443 1443 1443 1443 1442 1442 1442 1441 1440 1440 1439 1438 1437 1436 1436 1435 1434 1434 1433 1432 1431 1430